This is the latest recevied weather packets stored in our database for station/object K3MV-13. If no packets are shown the sender has not sent any weather packets the latest 10 day(s).
| Time | Temp. | Humidity | Pressure | Rain* | Wind** | Luminosity | Snow |
|---|---|---|---|---|---|---|---|
| 1777885578 | 6.67° C | 64% | 1013.7 hPa | 0 mm | - | 0 W/m² | - |
| 1777885276 | 6.67° C | 65% | 1013.5 hPa | 0 mm | - | 0 W/m² | - |
| 1777884974 | 6.67° C | 65% | 1013.7 hPa | 0 mm | - | 0 W/m² | - |
| 1777884669 | 6.67° C | 65% | 1013.7 hPa | 0 mm | - | 0 W/m² | - |
| 1777884366 | 6.67° C | 65% | 1013.7 hPa | 0 mm | - | 0 W/m² | - |
| 1777884062 | 6.67° C | 68% | 1013.6 hPa | 0 mm | - | 0 W/m² | - |
| 1777883760 | 6.67° C | 66% | 1013.7 hPa | 0 mm | - | 0 W/m² | - |
| 1777883457 | 6.11° C | 65% | 1013.7 hPa | 0 mm | - | 0 W/m² | - |
| 1777883153 | 6.11° C | 66% | 1013.6 hPa | 0 mm | - | 0 W/m² | - |
| 1777882849 | 6.11° C | 65% | 1013.7 hPa | 0 mm | - | 0 W/m² | - |
| 1777882546 | 5.56° C | 66% | 1013.7 hPa | 0 mm | - | 0 W/m² | - |
| 1777882242 | 5.56° C | 67% | 1013.6 hPa | 0 mm | - | 0 W/m² | - |
| 1777881939 | 5.56° C | 68% | 1013.8 hPa | 0 mm | - | 0 W/m² | - |
| 1777881636 | 5° C | 68% | 1013.8 hPa | 0 mm | - | 0 W/m² | - |
| 1777881332 | 5° C | 69% | 1013.9 hPa | 0 mm | - | 0 W/m² | - |
| 1777881030 | 4.44° C | 69% | 1013.8 hPa | 0 mm | - | 0 W/m² | - |
| 1777880728 | 4.44° C | 70% | 1013.8 hPa | 0 mm | - | 0 W/m² | - |
| 1777880426 | 4.44° C | 70% | 1013.7 hPa | 0 mm | - | 0 W/m² | - |
| 1777880124 | 3.89° C | 70% | 1014 hPa | 0 mm | - | 0 W/m² | - |
| 1777879822 | 3.89° C | 70% | 1013.9 hPa | 0 mm | - | 0 W/m² | - |
| 1777879519 | 3.89° C | 70% | 1014 hPa | 0 mm | - | 0 W/m² | - |
| 1777879215 | 3.89° C | 72% | 1013.9 hPa | 0 mm | - | 0 W/m² | - |
| 1777878913 | 3.89° C | 73% | 1013.8 hPa | 0 mm | - | 0 W/m² | - |
| 1777878610 | 3.89° C | 72% | 1013.8 hPa | 0 mm | - | 0 W/m² | - |
| 1777878307 | 3.33° C | 72% | 1013.9 hPa | 0 mm | - | 0 W/m² | - |
* Rain latest hour (hover to see other rain measurements)
** Current wind speed in m/s (hover to see current wind gust speed)